NOAA 16 DEB, 41211

Orbit data source: Space-Track

NOAA 16 DEB, 41211 is space debris in SSO originally from a launch on Thu, 21 Sep 2000 UTC launched from the Air Force Western Test Range (AFWTR). Debris objects in space refer to the collection of defunct objects orbiting the Earth. Examples of debris include non-operational satellites, rocket bodies, and fragments generated from explosions, collisions, or faulty payload assembly.

Loading next visibility...
Identifier
41211, 2000-055DQ
Orbit
SSO
Country
Flag of USUS
Related business
Manufacturer
Unknown
Mission
Spacecraft
Bus & Motor
Unknown
Mass
Unknown
Launch date (UTC)
2000-09-21 (25 years ago)
Launch vehicle
Unknown
Launch site
Air Force Western Test Range (AFWTR)
Object type
Payload
Rocket body
Debris
Shape & HBR
Unknown shape, 0.1 m
Radar Cross Section
Small (<0.1 m²)

Expand to show TLE details & history
Last TLE update: 1 day ago

TLE from 1 day ago
0 NOAA 16 DEB
1 41211U 00055DQ  25299.08718048  .00003479  00000-0  16539-2 0  9991
2 41211  98.6901 348.1098 0026004  71.5720 288.8280 14.19871377509076
Epoch: 2025-10-26T02:05Z
TLE epoch observation values (Epoch: 2025-10-26T02:05:32.393Z)
Latitude
-0.00006°
Longitude
-77.98358°
Altitude
822.7 km
Speed
7.445 km/s
True Right ascension
23h 12m 26s
True Declination
0° 00' 00"
Sunlit
Object was in full shadow at epoch
Visualization orbit readout
Latitude
Unknown
Longitude
Unknown
Altitude
Unknown
Speed
Unknown
Apparent Right ascension
Unknown
Apparent Declination
Unknown
Sunlit
N/A
Visualization observer readout
Local Sidereal Time
04:18:03
Azimuth
Unknown
Elevation
Unknown
Doppler factor
Unknown
Orbital elements
Apogee altitude
841.671 km
Perigee altitude
804.22 km
Semi-major axis
7,201.083 km
Eccentricity
0.0026
Inclination
98.6901°
RAAN
348.1098°
Arg. of periapsis
71.572°
True anomaly
288.54567°
Mean anomaly
288.828°
Eccentric anomaly
288.68686°
Mean motion
3.55178 °/min
Orbital period
101.36 mins
BSTAR
0.0016539
Loading maneuver chart data...
Computing Atmospheric mass density...
Loading historical data...
Loading historical data...
Loading historical data...
Loading historical data...
Loading historical data...
Loading historical data...
Loading historical data...

Documentation

Showing up to 5 results
|